Regional Weather Roundup
Issued by NWS Little Rock, AR

Home | Current Version | Previous Version | Graphics & Text | Print | Product List | Glossary On
Versions: 1 2 3 4 5 6 7 8 9 10 11 12 13 14 15 16 17 18 19 20 21 22 23 24 25 26 27 28 29 30 31 32 33 34 35 36 37 38 39 40 41 42 43 44 45 46 47 48 49 50
000
ASUS44 KLZK 250005
RWRLZK

WEATHER ROUNDUP FOR ARKANSAS
NATIONAL WEATHER SERVICE LITTLE ROCK AR
700 PM CDT SUN MAY 24 2015

NOTE: "FAIR" INDICATES FEW OR NO CLOUDS BELOW 12,000 FEET WITH NO
SIGNIFICANT WEATHER AND/OR OBSTRUCTIONS TO VISIBILITY.

ARZ001-003-010-029-250100-
NORTHWEST ARKANSAS

CITY           SKY/WX    TMP DP  RH WIND       PRES   REMARKS
FAYETTEVILLE   LGT RAIN  62  62 100 S6        29.86S
6HR MIN TEMP:  62; 6HR MAX TEMP:  64; 6HR PCP:  1.03;

FORT SMITH     LGT RAIN  66  62  87 SE5       29.86R
6HR MIN TEMP:  65; 6HR MAX TEMP:  66; 6HR PCP:  0.99;

HARRISON       CLOUDY    66  65  96 VRB3      29.85F
6HR MIN TEMP:  63; 6HR MAX TEMP:  76; 6HR PCP:  0.47;

BENTONVILLE    CLOUDY    64  61  88 CALM      29.87R
6HR MIN TEMP:  64; 6HR MAX TEMP:  66; 6HR PCP:  0.59;

ROGERS         LGT RAIN  63  61  93 CALM      29.87S
6HR MIN TEMP:  62; 6HR MAX TEMP:  66;

SILOAM SPGS    CLOUDY    63  57  82 CALM      29.87S
6HR MIN TEMP:  63; 6HR MAX TEMP:  66; 6HR PCP:  0.36;

HIGHFILL       LGT RAIN  64  50  61 S8        29.87R
6HR MIN TEMP:  64; 6HR MAX TEMP:  68; 6HR PCP:  0.58;

SPRINGDALE     LGT RAIN  63  63 100 CALM      29.89R VSB 1
$$

ARZ004-005-016-250100-
NORTH CENTRAL ARKANSAS

CITY           SKY/WX    TMP DP  RH WIND       PRES   REMARKS
BATESVILLE     CLOUDY    68  64  88 SE5       29.90S
6HR MIN TEMP:  68; 6HR MAX TEMP:  84; 6HR PCP:  0.37;

FLIPPIN        CLOUDY    70  66  88 SE6       29.84S
6HR MIN TEMP:  70; 6HR MAX TEMP:  81; 6HR PCP:  0.16;

MTN HOME       CLOUDY    69  65  86 S7        29.86S
6HR MIN TEMP:  69; 6HR MAX TEMP:  80; 6HR PCP:  0.31;

$$

ARZ040-041-250100-
WEST CENTRAL ARKANSAS

CITY           SKY/WX    TMP DP  RH WIND       PRES   REMARKS
MENA           CLOUDY    70  68  94 W5        29.89R
MOUNT IDA      CLOUDY    75  66  73 VRB3      29.85R
6HR MIN TEMP:  73; 6HR MAX TEMP:  78; 6HR PCP:  0.16;

$$

ARZ009-017-025-026-028-250100-
NORTHEAST ARKANSAS

CITY           SKY/WX    TMP DP  RH WIND       PRES   REMARKS
CORNING          N/A     81  72  74 SE9       29.91S
JONESBORO      CLOUDY    76  70  82 S15       29.92R
6HR MIN TEMP:  75; 6HR MAX TEMP:  85; 6HR PCP: TRACE;

NEWPORT        CLOUDY    72  69  90 S13       29.94R
6HR MIN TEMP:  70; 6HR MAX TEMP:  86; 6HR PCP:  0.16;

WALNUT RIDGE     N/A    N/A N/A N/A MISG        N/A  THUNDER
6HR MIN TEMP:  81; 6HR MAX TEMP:  84;

BLYTHEVILLE    PTSUNNY   83  68  60 S17G29    29.96R HX  86
6HR MIN TEMP:  83; 6HR MAX TEMP:  86;

$$

ARZ022-023-033-042-044-250100-
CENTRAL ARKANSAS

CITY           SKY/WX    TMP DP  RH WIND       PRES   REMARKS
LITTLE ROCK    CLOUDY    73  67  81 S10       29.91R
6HR MIN TEMP:  71; 6HR MAX TEMP:  86; 6HR PCP:  0.10;

N LITTLE ROCK  CLOUDY    71  69  94 S9        29.91R
6HR MIN TEMP:  69; 6HR MAX TEMP:  84;

JACKSONVILLE   PTSUNNY   70  69  95 SE7       29.90R
6HR MIN TEMP:  69; 6HR MAX TEMP:  84; 6HR PCP:  0.25;

SEARCY         CLOUDY    71  67  87 S9        29.92F
6HR MIN TEMP:  68; 6HR MAX TEMP:  84; 6HR PCP:  0.31;

HOT SPRINGS    CLOUDY    75  69  81 S7        29.88R
6HR MIN TEMP:  69; 6HR MAX TEMP:  81; 6HR PCP:  0.64;

RUSSELLVILLE   PTSUNNY   74  70  87 S8        29.85S
6HR MIN TEMP:  72; 6HR MAX TEMP:  81; 6HR PCP:  0.09;

CLINTON        FAIR      72  68  88 CALM      29.90R
$$

ARZ036-250100-
EAST ARKANSAS

CITY           SKY/WX    TMP DP  RH WIND       PRES   REMARKS
WEST MEMPHIS   CLOUDY    70  69  97 SE8       29.95F
6HR MIN TEMP:  69; 6HR MAX TEMP:  85; 6HR PCP:  0.18;

$$

ARZ050-053-066-070-073-250100-
SOUTHWEST ARKANSAS

CITY           SKY/WX    TMP DP  RH WIND       PRES   REMARKS
ARKADELPHIA    MOCLDY    76  72  87 SE9       29.90R
6HR MIN TEMP:  73; 6HR MAX TEMP:  83; 6HR PCP:  0.09;

CAMDEN         CLOUDY    75  66  73 NE7       29.92R
TEXARKANA      CLOUDY    75  69  81 S10       29.87S
6HR MIN TEMP:  74; 6HR MAX TEMP:  78; 6HR PCP:  0.13;

EL DORADO      CLOUDY    73  67  81 S6        29.92R
6HR MIN TEMP:  70; 6HR MAX TEMP:  85; 6HR PCP:  0.07;

DE QUEEN       CLOUDY    75  70  84 W5        29.85R
6HR MIN TEMP:  71; 6HR MAX TEMP:  76;

$$

ARZ056-057-069-250100-
SOUTHEAST ARKANSAS

CITY           SKY/WX    TMP DP  RH WIND       PRES   REMARKS
PINE BLUFF     CLOUDY    73  69  87 S7        29.93R
6HR MIN TEMP:  69; 6HR MAX TEMP:  85; 6HR PCP:  0.15;

STUTTGART      CLOUDY    73  66  78 MISG      29.93R
6HR MIN TEMP:  72; 6HR MAX TEMP:  88; 6HR PCP:  0.05;

MONTICELLO     CLOUDY    74  72  93 S3        29.94R
6HR MIN TEMP:  71; 6HR MAX TEMP:  85; 6HR PCP:  0.27;


$$





USA.gov is the U.S. government's official web portal to all federal, state and local government web resources and services.